Weather History for KITH - July, 2013

Change the Weather History Date:

Tuesday, July 30, 2013

  Actual Average Record
Temperature  
Mean Temperature 62 °F -  
Max Temperature 72 °F 78 °F 96 °F (1949)
Min Temperature 51 °F 56 °F 42 °F (1965)
Degree Days  
Heating Degree Days 4    
Growing Degree Days 12 (Base 50)    
Moisture  
Dew Point 56 °F    
Average Humidity 80    
Maximum Humidity 100    
Minimum Humidity 57    
Precipitation  
Precipitation 0.00 in - - ()
Sea Level Pressure  
Sea Level Pressure 30.20 in    
Wind  
Wind Speed 3 mph (NW)    
Max Wind Speed 10 mph    
Max Gust Speed -    
Visibility 10 miles    
Events      
Averages and records for this station are not official NWS values.
T = Trace of Precipitation, MM = Missing Value Source: NWS Daily Summary

Daily Weather History Graph

Daily Weather History Graph

Search for Another Location

Airport or City:

Trip Planner

Search our weather history database for the weather conditions in past years. The results will help you decide how hot, cold, wet, or windy it might be!

Date:

Astronomy

Jul. 30, 2013 Rise Set
Actual Time 5:56 AM EDT 8:27 PM EDT
Civil Twilight 5:24 AM EDT 8:59 PM EDT
Nautical Twilight 4:44 AM EDT 9:39 PM EDT
Astronomical Twilight 3:58 AM EDT 10:24 PM EDT
Moon 12:13 AM EDT (7/30) 2:45 PM EDT (7/30)
Length of Visible Light 15h 35m
Length of Day
14h 31m
Last Quarter, 41% of the Moon is Illuminated
Jul 30
Last Quarter
Aug 6
New
Aug 14
First Quarter
Aug 20
Full
Aug 28
Last Quarter

Hourly Weather History & Observations

Time (EDT) Temp. Dew Point Humidity Pressure Visibility Wind Dir Wind Speed Gust Speed Precip Events Conditions
12:56 AM 55.9 °F 54.9 °F 96% 30.17 in 10.0 mi Calm Calm - N/A   Partly Cloudy
1:56 AM 55.9 °F 52.9 °F 89% 30.18 in 10.0 mi Calm Calm - N/A   Clear
2:56 AM 54.9 °F 52.9 °F 93% 30.17 in 10.0 mi Calm Calm - N/A   Clear
3:56 AM 52.0 °F 52.0 °F 100% 30.18 in 10.0 mi Calm Calm - N/A   Clear
4:56 AM 54.9 °F 52.9 °F 93% 30.19 in 10.0 mi West 5.8 mph - N/A   Clear
5:56 AM 52.0 °F 50.9 °F 96% 30.19 in 7.0 mi Calm Calm - N/A   Partly Cloudy
6:19 AM 51.8 °F 51.8 °F 100% 30.19 in 10.0 mi East 3.5 mph - N/A   Partly Cloudy
6:56 AM 54.9 °F 52.9 °F 93% 30.20 in 10.0 mi North - - N/A   Scattered Clouds
7:56 AM 63.0 °F 55.9 °F 78% 30.22 in 10.0 mi West 3.5 mph - N/A   Scattered Clouds
8:56 AM 63.0 °F 56.8 °F 80% 30.23 in 10.0 mi NW 6.9 mph - N/A   Overcast
9:03 AM 62.6 °F 57.2 °F 82% 30.24 in 10.0 mi NW 6.9 mph - N/A   Mostly Cloudy
9:56 AM 64.9 °F 56.8 °F 75% 30.24 in 10.0 mi WNW 6.9 mph - N/A   Mostly Cloudy
10:56 AM 66.9 °F 55.9 °F 68% 30.23 in 10.0 mi WNW 8.1 mph - N/A   Mostly Cloudy
11:56 AM 68.9 °F 54.9 °F 61% 30.22 in 10.0 mi NW 8.1 mph - N/A   Mostly Cloudy
12:56 PM 68.9 °F 55.9 °F 63% 30.21 in 10.0 mi WNW 9.2 mph - N/A   Mostly Cloudy
1:56 PM 72.0 °F 55.9 °F 57% 30.19 in 10.0 mi NNW 6.9 mph - N/A   Mostly Cloudy
2:56 PM 72.0 °F 55.9 °F 57% 30.19 in 10.0 mi WNW 10.4 mph - N/A   Mostly Cloudy
3:56 PM 70.9 °F 56.8 °F 61% 30.18 in 10.0 mi NW 4.6 mph - N/A   Mostly Cloudy
4:56 PM 72.0 °F 56.8 °F 59% 30.18 in 10.0 mi WNW 5.8 mph - N/A   Mostly Cloudy
5:56 PM 70.9 °F 55.9 °F 59% 30.18 in 10.0 mi Calm Calm - N/A   Mostly Cloudy
6:56 PM 70.9 °F 56.8 °F 61% 30.18 in 10.0 mi Calm Calm - N/A   Mostly Cloudy
7:56 PM 65.8 °F 61.9 °F 87% 30.17 in 10.0 mi Calm Calm - N/A   Scattered Clouds
8:56 PM 61.9 °F 59.9 °F 93% 30.17 in 10.0 mi Calm Calm - N/A   Mostly Cloudy
9:56 PM 59.9 °F 59.0 °F 97% 30.19 in 10.0 mi Calm Calm - N/A   Mostly Cloudy
10:56 PM 59.0 °F 57.9 °F 96% 30.19 in 10.0 mi ENE 3.5 mph - N/A   Mostly Cloudy
11:56 PM 57.9 °F 56.8 °F 96% 30.19 in 8.0 mi Calm Calm - N/A   Clear